Location: Bremen
(53.0793°N, 8.8017°E)
Time: 23:11:34
(UTC+02:00)

Vanguard 2 Rocket - Pass Details

Date: 14 April 2024
Orbit: 556 x 3304 km, 32.9° (Epoch: 20 May)

Event Time Altitude Azimuth Distance (km) Brightness Sun altitude
Rises 23:19:45 0° 209° (SSW) 6,870 11.1 -21.7°
Reaches altitude 10° 23:25:20 10° 199° (SSW) 6,086 10.7 -22.1°
Enters shadow 23:33:42 23° 175° (S) 5,216 10.2 -22.8°
Maximum altitude 23:39:49 27° 152° (SSE) 4,942 - -23.2°
Exits shadow 23:47:50 20° 120° (ESE) 5,182 10.2 -23.8°
Drops below altitude 10° 23:53:24 10° 104° (ESE) 5,729 10.6 -24.1°
Sets 23:58:21 0° 94° (E) 6,418 11.0 -24.4°
